Regional Weather Roundup
Issued by NWS

Home | Current Version | Previous Version | Text Only | Print | Product List | Glossary Off
Versions: 1 2 3 4 5 6 7 8 9 10 11 12 13 14 15 16 17 18 19 20 21 22 23 24 25 26 27 28 29 30 31 32 33 34 35 36 37 38 39 40 41 42 43 44 45 46 47 48 49 50

000
ASUS43 KLOT 061306
RWRIL

ILLINOIS REGIONAL WEATHER ROUNDUP
NATIONAL WEATHER SERVICE CHICAGO/ROMEOVILLE IL
700 AM CST FRI MAR 06 2015

NOTE: "FAIR" INDICATES FEW OR NO CLOUDS BELOW 12,000 FEET WITH NO
SIGNIFICANT WEATHER AND/OR OBSTRUCTIONS TO VISIBILITY.

* THESE STATIONS ARE NOT UNDER NWS QUALITY CONTROL. THEY ALSO MAY NOT
  REPORT WEATHER SUCH AS PRECIPITATION OR FOG.

ILZ001-002-007-009-015-016-024-061400-
NORTHWEST ILLINOIS

CITY           SKY/WX    TMP DP  RH WIND       PRES   REMARKS
MOLINE         CLEAR      9   0  67 S12       30.36F WCI  -6
STERLING*      PTCLDY     5  -2  72 S6        30.39F WCI  -6
SAVANNA*       PTCLDY     2  -4  77 S10       30.37F WCI -14
$$

ILZ003-004-008-010-011-017-018-061400-
NORTH CENTRAL ILLINOIS

CITY           SKY/WX    TMP DP  RH WIND       PRES   REMARKS
ROCKFORD       MOCLDY    -1  -7  75 S9        30.40F WCI -16
FREEPORT*      PTCLDY     2  -4  73 S10       30.37F WCI -13
ROCHELLE*      PTCLDY    -2  -7  80 S13       30.41F WCI -20
DE KALB*       PTCLDY    -3  -7  81 S10       30.40F WCI -20
PERU*          PTCLDY     6  -1  72 S10       30.44F WCI  -9
$$

ILZ005-006-012>014-019>023-061400-
NORTHEAST ILLINOIS

CITY           SKY/WX    TMP DP  RH WIND       PRES   REMARKS
CHICAGO-OHARE  MOCLDY     6  -1  73 SW12      30.42F WCI  -9
CHICAGO-MIDWAY MOCLDY     7   0  73 S9        30.45F WCI  -7
AURORA         PTCLDY     1  -5  75 S7        30.43F WCI -12
LANSING*       PTCLDY     1  -4  78 S6        30.47F WCI -10
JOLIET*        PTCLDY     2  -1  85 CALM      30.46F
WAUKEGAN       PTCLDY     3  -2  79 SW10      30.39F WCI -12
DUPAGE AIRPORT PTCLDY     2  -4  76 S8        30.41F WCI -12
KANKAKEE*      PTCLDY     0  -4  80 S7        30.49S WCI -13
WHEELING       PTCLDY     7  -2  66 S9        30.44F WCI  -7
MORRIS*        PTCLDY    -2  -5  86 S6        30.45F WCI -14
ROMEOVILLE*    PTCLDY     2  -2  83 S8        30.45F WCI -11
NORTHERLY ISL    N/A      9   0  67 SW9         N/A  WCI  -4
$$

LMZ740>746-061400-
SOUTHERN LAKE MICHIGAN

STATION/POSITION SKY/WX   TEMP    WIND        PRES    VSBY  WAVE
                          AIR SEA DIR/SP/G                  HT/PER
                          (F)     (DEG/KT/KT) (MB)    (MI)  (FT/S)
WAUKEGAN HARBOR             7                   N/A
HARRISON CRIB               9     210/ 19/ 22   N/A
BURNHAM HARBOR              9     190/  5/ 12   N/A
CALUMET HARBOR              7     190/  8/ 11 1030.1F
MICHIGAN CITY               4     170/  9/ 11   N/A
$$

ILZ025>027-034>036-040-047-049-050-058-095>099-061400-
WEST-CENTRAL ILLINOIS

CITY           SKY/WX    TMP DP  RH WIND       PRES   REMARKS
QUINCY         CLEAR     14   5  67 S12       30.39F WCI   0
GALESBURG*     PTCLDY     5   0  79 SE9       30.38F WCI  -9
MACOMB*        CLEAR      8   4  82 S13       30.43F WCI  -7
JACKSONVILLE*  CLEAR     13   5  71 S10       30.46F WCI  -1
PITTSFIELD*    CLEAR     11   6  79 S8        30.45F WCI   0
$$

ILZ028>032-037-038-041>044-048-051>054-059>061-061400-
CENTRAL ILLINOIS

CITY           SKY/WX    TMP DP  RH WIND       PRES   REMARKS
PONTIAC        CLEAR      3  -2  80 S7        30.47F WCI -10
BLOOMINGTON    PTCLDY     2  -3  79 S9        30.46F WCI -13
DECATUR        PTCLDY     3  -3  76 S9        30.51F WCI -12
PEORIA         PTCLDY     7   0  73 S12       30.46F WCI  -8
LACON*         PTCLDY     6  -2  69 S6        30.45F WCI  -4
LINCOLN*       CLEAR      4  -1  77 S8        30.53S WCI  -9
SPRINGFIELD    CLEAR      9   1  70 S14       30.49F WCI  -7
TAYLORVILLE    CLEAR      9   1  72 S12       30.51S WCI  -6
$$

ILZ033-039-045-046-055>057-062-063-061400-
EAST-CENTRAL ILLINOIS

CITY           SKY/WX    TMP DP  RH WIND       PRES   REMARKS
CHAMPAIGN      MOCLDY    -4 -10  75 S8        30.51R WCI -19
DANVILLE*      PTCLDY    -3  -6  85 CALM      30.49R
RANTOUL*       PTCLDY    -5  -9  81 CALM      30.50S
MATTOON        MOCLDY     5  -1  76 S8        30.51S WCI  -8
PARIS*         MOCLDY     1  -3  86 S3        30.53F
$$

ILZ079-100>102-061400-
SOUTHWEST ILLINOIS

CITY           SKY/WX    TMP DP  RH WIND       PRES   REMARKS
ALTON          CLEAR     10   3  72 SE6       30.52F WCI   1
BELLEVILLE     CLEAR     11   7  81 S6        30.54F WCI   2
CAHOKIA*       CLEAR     15   7  70 S8        30.55S WCI   4
SPARTA*        CLEAR     10   3  73 S6        30.57S WCI   1
$$

ILZ064>066-069>071-074>076-080>082-084>086-088>090-092>094-061400-
SOUTH-CENTRAL ILLINOIS

CITY           SKY/WX    TMP DP  RH WIND       PRES   REMARKS
CARBONDALE     PTCLDY    -1  -5  82 CALM      30.60R
CAIRO*         PTCLDY     6   2  84 CALM      30.61S
EFFINGHAM*     PTCLDY    -1  -7  76 CALM      30.57S
MARION         PTCLDY     3   0  85 SE5       30.59F WCI  -6
MT. VERNON     PTCLDY     1  -6  71 CALM      30.57S
CENTRALIA*     PTCLDY     9   3  76 S7        30.56R WCI  -2
SALEM*         PTCLDY     9   3  77 S5        30.56R WCI   1
METROPOLIS*    PTCLDY    -2  -5  89 CALM      30.60R
$$

ILZ067-068-072-073-078-083-087-091-061400-
SOUTHEAST ILLINOIS

CITY           SKY/WX    TMP DP  RH WIND       PRES   REMARKS
LAWRENCEVILLE  PTCLDY     3  -1  83 CALM      30.59R
FLORA*         PTCLDY     4   1  85 CALM      30.57S
FAIRFIELD*     MOCLDY     2  -1  85 CALM      30.58R
HARRISBURG*    MOCLDY    -1  -4  86 CALM      30.61S
ROBINSON*      PTCLDY    -4  -8  84 CALM      30.58S
CARMI*         MOCLDY     0  -3  87 CALM      30.59R
$$

ABBREVIATIONS USED IN REMARKS
   TC - TEMPERATURE IN CELSIUS
  WCI - WIND CHILL INDEX
   HX - HEAT INDEX
  VSB - VISIBILITY
$$



USA.gov is the U.S. government's official web portal to all federal, state and local government web resources and services.